[[{"header":{"parameterUnit":"m.s-1","parameterCategory":1,"la1":30.2991,"la2":30.254,"lo1":-89.0895,"lo2":-89.0444,"dx":0.0017,"dy":0.0017,"nx":28,"ny":28,"refTime":"2023-01-27T09:00:00:Z","depth":0,"parameterNumber":2,"parameterNumberName":"U-component_of_WINDS"},"data":[0,0,0,0,0,0,0,0,0,0,0,0,0,0,0,0,0,0,0,0,0,0,0,0,0,0,0,0,0,0,0,0,0,0,0,0,0,0,0,0,0,0,0,0,0,0,0,0,0,0,0,0,0,0,0,0,0,0,-3.6662,-3.6663,0,-3.6734,-3.6735,-3.6735,-3.6695,-3.6693,-3.6691,-3.6689,-3.6757,-3.6761,-3.6765,0,0,0,0,0,0,0,0,0,0,0,0,0,-3.6485,-3.6489,-3.6662,-3.6663,-3.6664,-3.6734,-3.6735,-3.6736,-3.6695,-3.6693,-3.669,-3.6688,-3.6756,-3.6761,-3.6765,0,0,0,0,0,0,0,0,0,0,0,0,0,-3.656,-3.649,-3.6662,-3.6652,-3.6652,-3.6733,-3.6735,-3.6736,-3.6696,-3.6693,-3.669,-3.6687,-3.6755,-3.676,-3.6766,-3.6859,0,0,-3.6782,-3.6785,0,0,0,0,0,0,0,0,-3.6556,-3.6566,-3.6652,-3.6653,-3.6653,-3.6702,-3.6698,-3.6777,-3.6696,-3.6679,-3.6689,-3.6685,-3.6741,-3.6748,-3.6767,-3.6862,-3.6865,-3.6783,-3.6786,-3.6789,-3.679,0,0,0,0,0,0,0,-3.6551,-3.6563,-3.669,-3.6654,-3.6654,-3.6643,-3.665,-3.6712,-3.6726,-3.668,-3.6677,-3.6687,-3.6741,-3.6762,-3.6769,-3.6866,-3.6783,-3.6788,-3.6791,-3.6793,-3.7042,-3.7045,0,0,0,0,0,0,-3.6547,-3.6559,-3.6688,-3.6692,-3.6596,-3.6648,-3.6657,-3.6689,-3.6725,-3.6728,-3.6689,-3.6685,-3.6754,-3.6762,-3.6771,-3.6882,-3.6789,-3.6794,-3.6797,-3.7038,-3.7042,-3.7046,0,0,0,0,0,0,-3.6543,-3.6559,-3.6685,-3.6625,-3.664,-3.6655,-3.6692,-3.6692,-3.6714,-3.6732,-3.6733,-3.6709,-3.6752,-3.6763,-3.6838,-3.6884,-3.6796,-3.6801,-3.7035,-3.704,-3.7044,-3.7105,0,0,0,0,0,0,-3.6538,-3.6558,-3.6594,-3.6626,-3.6644,-3.6752,-3.6695,-3.6696,-3.6724,-3.6719,-3.6751,-3.6753,-3.6751,-3.683,-3.6843,-3.689,-3.6806,-3.703,-3.7037,-3.7043,-3.7099,-3.7112,-3.7122,0,0,0,0,0,-3.6532,-3.6607,-3.6596,-3.6612,-3.669,-3.6754,-3.6764,-3.6761,-3.6728,-3.6764,-3.6776,-3.6752,-3.6878,-3.6838,-3.6853,-3.6901,-3.7027,-3.7035,-3.7042,-3.7094,-3.7109,-3.7122,0,0,0,0,0,0,-3.6577,-3.6611,-3.6599,-3.6687,-3.6719,-3.6747,-3.6792,-3.6778,-3.6817,-3.681,-3.6804,-3.6812,-3.6889,-3.6903,-3.6858,-3.6994,-3.6947,-3.6958,-3.6981,-3.6996,-3.7008,-3.7001,-3.681,0,0,0,0,0,-3.6598,-3.6649,-3.6676,-3.6751,-3.6767,-3.6778,-3.6806,-3.6801,-3.6833,-3.6845,-3.6862,-3.6892,-3.6938,-3.6969,-3.7012,-3.7103,-3.7108,-3.7144,-3.7155,-3.7165,-3.7173,-3.7221,-3.7236,-3.707,-3.707,-3.707,0,0,-3.664,-3.6665,-3.6697,-3.676,-3.6784,-3.6836,-3.6789,-3.6845,-3.6883,-3.6853,-3.6924,-3.6939,-3.6972,-3.7055,-3.7092,-3.7069,-3.7221,-3.7174,-3.7182,-3.7184,-3.723,-3.7246,-3.7259,-3.7075,-3.7074,-3.7074,0,0,-3.6742,-3.6768,-3.6832,-3.6858,-3.6896,-3.6903,-3.6919,-3.6951,-3.696,-3.7032,-3.7011,-3.7056,-3.7136,-3.716,-3.7183,-3.7298,-3.7277,-3.7313,-3.7372,-3.7419,-3.7432,-3.7443,-3.7482,-3.7497,-3.7322,-3.7322,-3.7322,0,-3.6789,-3.6867,-3.6867,-3.6926,-3.6954,-3.6933,-3.6997,-3.7022,-3.7071,-3.709,-3.7065,-3.7165,-3.7186,-3.7274,-3.7303,-3.7323,-3.7339,-3.7307,-3.7431,-3.7442,-3.7453,-3.749,-3.7505,-3.7326,-3.7325,-3.7325,-3.7325,0,-3.6922,-3.6977,-3.7025,-3.7075,-3.7109,-3.7171,-3.7179,-3.7213,-3.7207,-3.7216,-3.729,-3.7316,-3.7364,-3.7385,-3.7379,-3.7472,-3.7457,-3.7432,-3.7383,-3.7472,-3.7507,-3.7521,-3.7331,-3.733,-3.7329,-3.7328,0,0,-3.705,-3.7103,-3.712,-3.7143,-3.7184,-3.7226,-3.7287,-3.7336,-3.7365,-3.7401,-3.745,-3.752,-3.7498,-3.7524,-3.752,-3.7562,-3.765,-3.7531,-3.7532,-3.755,-3.7753,-3.7769,-3.7786,-3.7639,-3.7641,-3.7643,-3.7749,0,-3.7153,-3.7261,-3.7264,-3.7362,-3.7412,-3.7394,-3.7447,-3.7478,-3.749,-3.7533,-3.7545,-3.7594,-3.7561,-3.7577,-3.7618,-3.7631,-3.769,-3.7624,-3.7682,-3.7684,-3.767,-3.7804,-3.7821,-3.7919,-3.7763,-3.7765,-3.7767,0,-3.7287,-3.7329,-3.7433,-3.7468,-3.7489,-3.7537,-3.7583,-3.7625,-3.766,-3.7665,-3.7697,-3.7688,-3.7749,-3.7703,-3.7785,-3.774,-3.7765,-3.7775,-3.7779,-3.7781,-3.7728,-3.7807,-3.7951,-3.7964,-3.7789,-3.7787,-3.7785,0,-3.7367,-3.745,-3.7522,-3.7543,-3.7587,-3.7621,-3.764,-3.7672,-3.7702,-3.7742,-3.7761,-3.7808,-3.7832,-3.7868,-3.7871,-3.7838,-3.7955,-3.7909,-3.7958,-3.7958,-3.798,-3.7978,-3.8127,-3.8002,-3.8002,-3.8002,-3.8001,0,-3.7479,-3.7542,-3.7559,-3.7603,-3.7674,-3.7677,-3.7746,-3.7763,-3.7793,-3.7839,-3.7827,-3.787,-3.7874,-3.7919,-3.7922,-3.799,-3.8001,-3.8006,-3.8005,-3.8005,-3.8004,-3.8018,-3.801,-3.8006,-3.8005,-3.8004,-3.8003,0,-3.7578,-3.7592,-3.767,-3.7707,-3.7717,-3.7767,-3.7798,-3.784,-3.7852,-3.7911,-3.7924,-3.7942,-3.7994,-3.8003,-3.8063,-3.8066,-3.8146,-3.814,-3.8134,-3.8132,-3.818,-3.8174,-3.834,-3.8361,-3.8226,-3.8228,-3.8229,0,-3.7647,-3.7695,-3.7738,-3.777,-3.7792,-3.7842,-3.7873,-3.788,-3.7912,-3.7957,-3.7993,-3.8045,-3.8085,-3.8169,-3.8186,-3.8233,-3.8226,-3.8281,-3.8232,-3.823,-3.8223,-3.8219,-3.8222,-3.8289,-3.829,-3.8291,-3.8292,0,-3.7766,-3.7772,-3.7818,-3.7868,-3.7906,-3.7945,-3.7981,-3.8007,-3.8019,-3.8056,-3.811,-3.8142,-3.8206,-3.8256,-3.8303,-3.8321,-3.8308,-3.8309,-3.8322,-3.832,-3.8313,-3.8315,-3.8156,-3.8303,-3.8302,-3.8301,-3.8301,-3.83,-3.785,-3.7893,-3.793,-3.7982,-3.8011,-3.8047,-3.8088,-3.8107,-3.8152,-3.8205,-3.8207,-3.8266,-3.83,-3.8362,-3.8384,-3.8429,-3.8411,-3.8431,-3.8436,-3.844,-3.8443,-3.831,-3.8438,-3.8438,-3.8438,-3.8438,-3.8437,0,-3.7967,-3.7991,-3.804,-3.8092,-3.8134,-3.8122,-3.8163,-3.8197,-3.825,-3.8284,-3.8326,-3.8388,-3.8438,-3.8461,-3.851,-3.8541,-3.8536,-3.8553,-3.8549,-3.8553,-3.8458,-3.844,-3.8557,-3.8556,-3.8556,-3.8556,-3.8556,-3.8556,-3.8032,-3.8103,-3.8113,-3.8198,-3.8222,-3.8281,-3.8305,-3.8337,-3.8365,-3.8436,-3.8478,-3.8494,-3.8523,-3.8574,-3.8619,-3.8625,-3.8641,-3.8661,-3.8663,-3.8572,-3.856,-3.8548,-3.8531,-3.8665,-3.8665,-3.8754,-3.8755,-3.8756]},{"header":{"parameterUnit":"m.s-1","parameterCategory":1,"la1":30.2991,"la2":30.254,"lo1":-89.0895,"lo2":-89.0444,"dx":0.0017,"dy":0.0017,"nx":28,"ny":28,"refTime":"2023-01-27T09:00:00:Z","depth":0,"parameterNumber":3,"parameterNumberName":"V-component_of_WINDS"},"data":[0,0,0,0,0,0,0,0,0,0,0,0,0,0,0,0,0,0,0,0,0,0,0,0,0,0,0,0,0,0,0,0,0,0,0,0,0,0,0,0,0,0,0,0,0,0,0,0,0,0,0,0,0,0,0,0,0,0,1.683,1.6829,0,1.6757,1.6756,1.6755,1.6628,1.6626,1.6624,1.6621,1.6545,1.6545,1.6546,0,0,0,0,0,0,0,0,0,0,0,0,0,1.6861,1.6861,1.683,1.6829,1.6828,1.6757,1.6756,1.6755,1.6629,1.6626,1.6623,1.662,1.6545,1.6545,1.6546,0,0,0,0,0,0,0,0,0,0,0,0,0,1.6824,1.6861,1.683,1.6757,1.6749,1.6757,1.6756,1.6755,1.6629,1.6626,1.6622,1.6619,1.6545,1.6545,1.6546,1.6619,0,0,1.6546,1.6547,0,0,0,0,0,0,0,0,1.6826,1.6823,1.6768,1.6762,1.6753,1.6698,1.6739,1.6709,1.663,1.6675,1.6621,1.6617,1.6599,1.6594,1.6588,1.6615,1.6612,1.6546,1.6547,1.6547,1.6547,0,0,0,0,0,0,0,1.6829,1.6825,1.6801,1.6768,1.6759,1.6728,1.6718,1.6733,1.6658,1.6671,1.6661,1.6655,1.6594,1.6589,1.6586,1.6611,1.6546,1.6547,1.6547,1.6547,1.6696,1.67,0,0,0,0,0,0,1.6842,1.6828,1.6803,1.6799,1.6782,1.673,1.672,1.6719,1.6657,1.6644,1.6658,1.6649,1.659,1.6586,1.6583,1.6665,1.6547,1.6547,1.6547,1.6692,1.6697,1.6701,0,0,0,0,0,0,1.6843,1.6841,1.6806,1.6811,1.6804,1.6733,1.6734,1.672,1.6714,1.6647,1.6633,1.6666,1.6587,1.6582,1.6611,1.6661,1.6547,1.6547,1.6688,1.6694,1.6699,1.683,0,0,0,0,0,0,1.6845,1.6842,1.6869,1.6812,1.6804,1.6836,1.6737,1.6721,1.6715,1.6703,1.6651,1.6639,1.6584,1.6612,1.6612,1.6659,1.6548,1.6683,1.669,1.6697,1.6821,1.684,1.6856,0,0,0,0,0,1.6846,1.6908,1.6871,1.6868,1.6836,1.6839,1.6834,1.677,1.672,1.6746,1.6704,1.6641,1.6656,1.6616,1.6614,1.6663,1.6679,1.6688,1.6697,1.6813,1.6836,1.6855,0,0,0,0,0,0,1.697,1.6899,1.6857,1.6902,1.6878,1.6818,1.6848,1.6795,1.6784,1.6773,1.6693,1.6683,1.6723,1.6695,1.6652,1.6732,1.6658,1.6667,1.6747,1.6768,1.6785,1.679,1.6548,0,0,0,0,0,1.7003,1.7012,1.6949,1.6995,1.6985,1.692,1.6918,1.6871,1.6842,1.6831,1.6791,1.6765,1.6764,1.6765,1.676,1.6818,1.6805,1.6851,1.6868,1.6882,1.689,1.6921,1.694,1.6729,1.6729,1.6729,0,0,1.7071,1.7033,1.7043,1.7019,1.6994,1.7005,1.6911,1.6926,1.6934,1.6833,1.6858,1.6829,1.6795,1.6839,1.6856,1.6818,1.6947,1.6893,1.6905,1.6905,1.6931,1.6952,1.6969,1.6735,1.6734,1.6733,0,0,1.7199,1.7171,1.7207,1.7185,1.715,1.7107,1.7116,1.7065,1.7041,1.7066,1.6991,1.7,1.6999,1.6979,1.6968,1.7094,1.7036,1.7095,1.7184,1.7215,1.7231,1.7246,1.7291,1.7308,1.7103,1.7104,1.7104,0,1.7286,1.73,1.7232,1.7252,1.7245,1.7157,1.7193,1.7175,1.714,1.7137,1.7095,1.7095,1.7066,1.7105,1.7136,1.713,1.7139,1.7099,1.7235,1.7248,1.7261,1.7303,1.732,1.7111,1.711,1.7109,1.7109,0,1.741,1.7421,1.7454,1.7425,1.7421,1.745,1.7387,1.7391,1.7346,1.7308,1.7335,1.7298,1.7285,1.7292,1.7246,1.7325,1.7303,1.7249,1.7173,1.7289,1.7328,1.7344,1.7122,1.7119,1.7117,1.7115,0,0,1.7611,1.7546,1.7559,1.7546,1.7502,1.751,1.7536,1.7524,1.753,1.7511,1.753,1.7534,1.7485,1.7474,1.7426,1.7453,1.7557,1.7396,1.7394,1.7428,1.7643,1.7683,1.7703,1.7519,1.7522,1.7524,1.7646,0,1.7729,1.7769,1.771,1.7763,1.7774,1.7692,1.7715,1.7691,1.7657,1.7661,1.7624,1.7628,1.7563,1.7556,1.7579,1.7539,1.7599,1.753,1.7537,1.7538,1.7547,1.7723,1.7765,1.7881,1.7661,1.7663,1.7665,0,1.7871,1.786,1.7915,1.7871,1.7873,1.7895,1.7881,1.7886,1.7859,1.7832,1.7823,1.7767,1.779,1.7719,1.775,1.7705,1.7705,1.7687,1.769,1.7687,1.7608,1.7725,1.7917,1.7934,1.7688,1.7686,1.7684,0,1.8013,1.8012,1.8044,1.8036,1.7985,1.8002,1.7982,1.7952,1.795,1.7938,1.7937,1.7928,1.7923,1.7919,1.7863,1.7816,1.7902,1.7826,1.7881,1.7883,1.7901,1.79,1.8095,1.7903,1.7903,1.7903,1.7902,0,1.815,1.8187,1.8108,1.8128,1.8168,1.8101,1.8142,1.8114,1.8088,1.8102,1.8032,1.8046,1.7973,1.798,1.7937,1.797,1.7969,1.7948,1.7936,1.7954,1.7957,1.7952,1.7942,1.7907,1.7906,1.7905,1.7904,0,1.8313,1.8261,1.8292,1.8244,1.8232,1.8264,1.8222,1.8239,1.8203,1.8222,1.8222,1.8165,1.817,1.8115,1.8109,1.808,1.8134,1.8107,1.8143,1.8135,1.8193,1.8189,1.8391,1.8415,1.8208,1.821,1.8212,0,1.8403,1.843,1.8385,1.839,1.8374,1.8382,1.8381,1.8318,1.8319,1.8293,1.8314,1.8314,1.831,1.8323,1.828,1.8277,1.825,1.8321,1.8248,1.8266,1.8251,1.825,1.8253,1.8336,1.8338,1.834,1.8342,0,1.857,1.8544,1.8544,1.8537,1.8538,1.8529,1.8515,1.8524,1.8455,1.8461,1.8466,1.8464,1.846,1.8461,1.845,1.8429,1.8375,1.8366,1.8379,1.8396,1.8416,1.8407,1.8184,1.8361,1.8359,1.8358,1.8357,1.8356,1.8698,1.8719,1.8692,1.8696,1.868,1.867,1.8684,1.8651,1.8654,1.8646,1.861,1.8622,1.8597,1.8577,1.8562,1.8572,1.8537,1.8555,1.856,1.8565,1.8576,1.8416,1.857,1.8569,1.8568,1.8568,1.8567,0,1.8861,1.884,1.8845,1.8829,1.8833,1.8784,1.8767,1.8774,1.8786,1.8768,1.8767,1.8775,1.8777,1.8736,1.8733,1.8749,1.8724,1.875,1.8748,1.8745,1.8607,1.8596,1.8771,1.8771,1.8771,1.8771,1.8771,1.8771,1.8946,1.8979,1.8951,1.8976,1.8955,1.8967,1.8963,1.8954,1.8939,1.8951,1.8953,1.8928,1.8901,1.8897,1.8897,1.8885,1.8887,1.8922,1.8902,1.8774,1.8754,1.8735,1.8725,1.8923,1.8924,1.9039,1.904,1.9041]}]]